Weather History for Pittsfield, MA

Change the Weather History Date:

Monday, December 31, 2012

  Actual Average Record
Temperature  
Mean Temperature 24 °F 22 °F  
Max Temperature 32 °F 30 °F 57 °F (1932)
Min Temperature 16 °F 14 °F -17 °F (1962)
Degree Days  
Heating Degree Days 41 43  
Month to date heating degree days 1029 1187  
Since 1 July heating degree days 2536 2838  
Cooling Degree Days 0 0  
Month to date cooling degree days 0 0  
Year to date cooling degree days 465 290  
Moisture  
Dew Point 17 °F    
Average Humidity 73    
Maximum Humidity 84    
Minimum Humidity 61    
Precipitation  
Precipitation T in 0.09 in 3.20 in (1948)
Month to date precipitation 3.84 3.00  
Year to date precipitation 36.35 45.38  
Sea Level Pressure  
Sea Level Pressure 29.95 in    
Wind  
Wind Speed 9 mph (WSW)    
Max Wind Speed 20 mph    
Max Gust Speed 28 mph    
Visibility 10 miles    
Events      
T = Trace of Precipitation, MM = Missing Value Source: NWS Daily Summary

Daily Weather History Graph

Daily Weather History Graph

Search for Another Location

Airport:

Trip Planner

Search our weather history database for the weather conditions in past years. The results will help you decide how hot, cold, wet, or windy it might be!

Date:

Astronomy

Dec. 31, 2012 Rise Set
Actual Time 7:22 AM EST 4:30 PM EST
Civil Twilight 6:50 AM EST 5:02 PM EST
Nautical Twilight 6:15 AM EST 5:37 PM EST
Astronomical Twilight 5:41 AM EST 6:11 PM EST
Moon 8:02 PM EST (12/31) 8:58 AM EST (12/31)
Length of Visible Light 10h 11m
Length of Day
9h 07m
Waning Gibbous, 90% of the Moon is Illuminated
Dec 31
Waning Gibbous
Jan 4
Last Quarter
Jan 11
New
Jan 18
First Quarter
Jan 26
Full

Hourly Weather History & Observations

Time (EST) Temp. Windchill Dew Point Humidity Pressure Visibility Wind Dir Wind Speed Gust Speed Precip Events Conditions
12:54 AM 17.1 °F 4.3 °F 7.0 °F 65% 30.08 in 10.0 mi WNW 11.5 mph 18.4 mph N/A   Clear
1:54 AM 18.0 °F 3.6 °F 10.0 °F 71% 30.08 in 10.0 mi WNW 15.0 mph 27.6 mph N/A   Clear
2:54 AM 19.0 °F 7.5 °F 10.9 °F 71% 30.08 in 10.0 mi WNW 10.4 mph 16.1 mph N/A   Overcast
3:54 AM 19.9 °F 10.1 °F 14.0 °F 78% 30.06 in 10.0 mi NW 8.1 mph - 0.00 in   Overcast
4:42 AM 21.2 °F 12.6 °F 15.8 °F 80% 29.98 in 10.0 mi Variable 6.9 mph 16.1 mph N/A   Overcast
4:54 AM 21.9 °F 9.2 °F 16.0 °F 78% 30.05 in 10.0 mi WNW 13.8 mph 19.6 mph N/A   Overcast
5:54 AM 21.9 °F 14.5 °F 16.0 °F 78% 30.06 in 10.0 mi WSW 5.8 mph - N/A   Overcast
6:54 AM 21.0 °F 12.4 °F 16.0 °F 81% 30.05 in 10.0 mi SW 6.9 mph - N/A   Overcast
7:54 AM 21.9 °F 12.5 °F 17.1 °F 82% 30.06 in 10.0 mi West 8.1 mph - N/A   Overcast
8:54 AM 23.0 °F 11.7 °F 18.0 °F 81% 30.06 in 10.0 mi West 11.5 mph - N/A   Overcast
9:54 AM 25.0 °F 13.1 °F 19.0 °F 78% 30.05 in 10.0 mi WSW 13.8 mph - N/A   Overcast
10:54 AM 26.1 °F 13.6 °F 19.0 °F 75% 30.04 in 10.0 mi West 16.1 mph - N/A   Overcast
11:54 AM 27.0 °F 16.1 °F 19.0 °F 72% 30.00 in 10.0 mi WSW 12.7 mph - N/A   Overcast
12:54 PM 28.0 °F 18.1 °F 19.0 °F 69% 29.97 in 10.0 mi WSW 11.5 mph - N/A   Overcast
1:33 PM 28.4 °F 18.5 °F 19.4 °F 69% 29.89 in 10.0 mi WSW 11.5 mph 18.4 mph N/A   Scattered Clouds
1:54 PM 28.9 °F 20.4 °F 19.0 °F 67% 29.94 in 10.0 mi West 9.2 mph - N/A   Clear
2:54 PM 30.0 °F 24.1 °F 19.0 °F 64% 29.91 in 10.0 mi SW 5.8 mph - N/A   Clear
3:54 PM 28.9 °F 21.9 °F 18.0 °F 64% 29.89 in 10.0 mi SW 6.9 mph - N/A   Clear
4:54 PM 26.1 °F 21.9 °F 17.1 °F 69% 29.88 in 10.0 mi WSW 3.5 mph - N/A   Clear
5:54 PM 26.1 °F 21.9 °F 17.1 °F 69% 29.86 in 10.0 mi SSW 3.5 mph - N/A   Clear
6:54 PM 27.0 °F 20.5 °F 18.0 °F 69% 29.86 in 10.0 mi SW 5.8 mph - N/A   Clear
7:54 PM 27.0 °F 23.0 °F 18.0 °F 69% 29.84 in 10.0 mi SW 3.5 mph - N/A   Mostly Cloudy
8:54 PM 28.0 °F 24.2 °F 19.0 °F 69% 29.82 in 10.0 mi West 3.5 mph - N/A   Overcast
9:54 PM 28.9 °F 23.9 °F 19.0 °F 67% 29.79 in 10.0 mi SW 4.6 mph - N/A   Overcast
10:54 PM 30.0 °F 22.4 °F 19.0 °F 64% 29.78 in 10.0 mi SW 8.1 mph - N/A   Overcast
11:37 PM 32.0 °F 23.6 °F 21.2 °F 64% 29.74 in 10.0 mi West 10.4 mph 20.7 mph N/A   Overcast
11:54 PM 32.0 °F 22.1 °F 19.9 °F 61% 29.76 in 10.0 mi West 13.8 mph - N/A   Overcast